Location: Favalello
(42.2939°N, 9.2706°E)
Time: 23:22:20
(UTC+00:00)

Nadezhda 4 Rocket - Pass Details

Date: 06 December 2019
Orbit: 949 x 993 km, 82.9° (Epoch: 26 January)

Event Time Altitude Azimuth Distance (km) Brightness Sun altitude
Rises 17:38:55 0° 196° (SSW) 3,691 7.4 -19.4°
Reaches altitude 10° 17:41:28 10° 200° (SSW) 2,748 6.8 -19.9°
Maximum altitude 17:47:42 62° 280° (W) 1,112 4.5 -21.0°
Drops below altitude 10° 17:54:00 10° 1° (N) 2,761 6.2 -22.1°
Sets 17:56:34 0° 5° (N) 3,710 6.9 -22.6°
